www.pogodaiklimat.ru
ПОГОДА в Гринвилле
Время
и дата
02:35 07.02
02:55 07.02
03:15 07.02
03:35 07.02
03:55 07.02
04:15 07.02
04:35 07.02
04:55 07.02
05:15 07.02
05:35 07.02
05:55 07.02
06:15 07.02
06:35 07.02
06:55 07.02
07:15 07.02
07:35 07.02
07:55 07.02
08:15 07.02
08:35 07.02
08:55 07.02
09:15 07.02
09:35 07.02
09:55 07.02
10:15 07.02
10:35 07.02
10:55 07.02
11:15 07.02
11:35 07.02
11:55 07.02
12:15 07.02
12:35 07.02
12:55 07.02
13:15 07.02
13:35 07.02
13:55 07.02
14:15 07.02
14:35 07.02
14:55 07.02
15:15 07.02
15:35 07.02
15:55 07.02
16:15 07.02
16:35 07.02
16:55 07.02
17:15 07.02
17:35 07.02
17:55 07.02
18:15 07.02
Ветер
(напр.,м/с)
Видим. Явления Облачность Т
(С)
Тd
(С)
f
(%)
Тe
(С)
Тes
(С)
Комфортность P
(гПа)
Po
(гПа)
Тmin
(С)
Tmax
(С)
R
(мм)
R24
(мм)
S
(см)
Ю 3 16 км ясно +10.5 +0.2 49 +9 +9 1003.3
Ю 2 16 км ясно +10.3 +0.1 49 +9 +9 1003.3
Ю 2 16 км ясно +10.1 +0.2 50 +9 +9 1003.3
Ю 2 16 км ясно +10.1 +0.9 53 +9 +9 1003.3
Ю 4 16 км ясно +10.9 +1.6 53 +9 +9 1003.3
Ю 5
{7}
16 км ясно +11.7 +2.0 51 +10 +10 1002.9
Ю 6 16 км ясно +12.0 +2.1 51 +10 +10 1002.9
ЮЗ 5 16 км ясно +12.1 +2.4 51 +10 +10 1003.3
Ю 6
{8}
16 км ясно +12.2 +2.5 51 +10 +10 1003.6
Ю 4 16 км ясно +12.2 +2.9 53 +10 +10 1003.6
Ю 4 16 км ясно +11.8 +3.0 55 +10 +10 1003.9 +10.0 +12.5
Ю 3 16 км ясно +11.6 +3.1 56 +10 +10 1004.3
Ю 5
{8}
16 км 5/5 1950 м +11.2 +3.2 58 +9 +9 1004.3
ЮЗ 4 16 км 5/5 1950 м +11.5 +3.5 58 +10 +10 1004.6
Ю 4 16 км 8/8 1950 м +11.6 +3.7 58 +10 +10 1004.9
ЮЗ 4 16 км 10/10 1950 м +11.5 +4.0 60 +10 +10 1005.3
Ю 5 16 км 5/5 1500 м +12.1 +4.2 58 +10 +10 1005.6
Ю 4 16 км 5/5 1500 м +13.0 +4.7 57 +11 +12 1005.6
ЮЗ 5
{7}
16 км ясно +13.2 +4.8 57 +11 +12 1005.9
Ю 6
{9}
16 км ясно +13.6 +4.8 55 +12 +12 1005.6
ЮЗ 6 16 км ясно +13.8 +5.3 56 +12 +13 1005.6
ЮЗ 6 16 км ясно +14.0 +5.8 58 +12 +14 1005.9
ЮЗ 6 16 км ясно +14.5 +6.2 57 +13 +14 1005.9
Ю 7 16 км ясно +14.9 +6.3 56 +13 +15 1005.9
ЮЗ 6
{8}
16 км 8/8 1800 м +15.1 +6.6 57 +14 +14 1006.3
ЮЗ 5
{9}
16 км 10/8 1800 m
[Ac]
+15.5 +7.0 57 +14 +15 1006.3
ЮЗ 6 16 км 10/5 1800 m
[Ac]
+15.9 +7.4 57 +15 +15 1005.9
ЮЗ 5 16 км 8/0 2100 m
[Ac]
+16.5 +7.6 56 +16 +17 1005.9
Ю 7
{9}
16 км 5/0 2550 m
[Ac]
+17.4 +7.8 53 +16 +18 1005.3 +11.2 +17.9
Ю 9
{11}
16 км ясно +18.4 +8.2 51 +18 +18 1004.9
Ю 7
{12}
16 км ясно +18.6 +8.6 52 +18 +21 1004.9
ЮЗ 6
{10}
16 км 8/8 1260 м +18.0 +8.8 55 +17 +18 1004.6
ЮЗ 3
{9}
16 км 8/8 1800 м +18.2 +9.0 55 +19 +20 1004.6
З 4 16 км 10/10 1290 м +18.0 +9.1 56 +18 +18 1004.6
ЮЗ 2 16 км 10/10 1290 м +18.0 +9.0 56 +19 +19 1004.6
ЮЗ 3
{7}
16 км 10/10 1290 м +17.7 +8.8 56 +18 +18 1004.6
ЮЗ 5
{8}
16 км 10/10 1290 м +17.7 +9.0 57 +17 +17 1004.9
ЮЗ 2 16 км 10/10 1410 м +17.5 +9.0 57 +18 +18 1004.9
ЮЗ 2 16 км 10/10 1260 м +17.3 +9.1 59 +18 +18 1005.3
ЮЗ 2 16 км 10/10 1200 м +17.1 +9.2 60 +17 +17 1005.3
З 3 16 км 10/10 1140 м +16.6 +9.7 64 +16 +16 1005.6
З 2 16 км 10/10 1080 м +16.1 +10.0 67 +16 +16 1005.9
З 3 16 км 10/10 1140 м +15.8 +10.0 68 +15 +15 1005.9
З 2 16 км 10/10 1380 м +15.7 +10.2 70 +16 +16 1006.3
З 4 16 км 10/10 1380 м +15.5 +10.2 71 +15 +15 1006.6
З 4 16 км 10/10 1380 м +14.9 +10.9 77 +14 +14 1006.6
З 3 16 км 10/10 720 м +14.5 +11.0 80 +14 +14 1006.9 +14.5 +18.7
СЗ 4 16 км слабый дождь 10/10 720 m
[Ns]
+14.2 +11.0 81 +13 +13 1007.3
Местоположение метеостанции Muhlenberg County Airport: широта 37.2262 долгота -87.1564 высота над уровнем моря 127 м.
В архиве по умолчанию представлена погода в Гринвилле за последние 1-2 суток. Обновление информации о фактической погоде в базе происходит ежечасно! Архивные данные за месяц целиком и за предыдущие месяцы Вы можете получить, выбрав интересующий диапазон дат из раскрывающегося списка и нажав кнопку "Ввод!".
Внимание! Архив погоды МЕТАР в базе сайта по станциям, не включенным в климатический монитор, хранится не более 60 дней. Нет смысла пытаться выбрать более раннюю дату.
*Определитесь, кто Вы:
Внимание! Время в таблицах - местное (без учета летнего времени). Для получения всемирного времени необходимо вычесть поправку, которая равна -6 ч.
Смотрите также архив погоды в соседних городах и на ближайших метеорологических станциях:
Партнеры нашего сайта:      
Пояснения к столбцам:
  • Ветер - указаны скорость ветра в м/с - средняя за 10 мин, порывы в срок и между сроками (в фигурных скобках) и направление, откуда дует ветер: С - северный,
  • СВ - северо-восточный, В - восточный, ЮВ - юго-восточный, Ю - южный, ЮЗ - юго-западный, З - западный, СЗ - северо-западный.
  • Видимость - горизонтальная дальность видимости в метрах или километрах. При видимости от 1 до 10 км при отсутствии осадков обычно наблюдается дымка, при ухудшении видимости до 1 км и менее - туман. В сухую погоду видимость может ухудшаться дымом, пылью или мглою.
  • Явления - указаны атмосферные явления, наблюдавшиеся в срок или в последний час перед сроком; фигурными скобками обозначены явления, наблюдавшиеся между сроками (за 1-3 часа до срока); квадратными скобками обозначены град или гололедные отложения с указанием их диаметра в мм.
  • Облачность - указаны через наклонную черту общая и нижняя облачность в баллах и высота нижней границы облаков в метрах; квадратными скобками обозначены формы облаков: Ci - перистые, Cs - перисто-слоистые, Cc - перисто-кучевые, Ac - высококучевые, As - высокослоистые, Sc - слоисто-кучевые, Ns - слоисто-дождевые, Cu - кучевые, Cb - кучево-дождевые. Подробнее классификацию облаков см. в Атласе облаков (PDF).
  • T - Температура воздуха - температура, измеренная на высоте 2 м над землей.
  • Td - Температура точки росы - температура, при понижении до которой содержащийся в воздухе водяной пар достигнет насыщения.
  • f - Относительная влажность воздуха - влажноcть воздуха, измеренная на высоте 2 м над землей.
  • Te - Эффективная температура - температура, которую ощущает одетый по сезону человек в тени. Характеристика душности погоды. При расчете учитывается влияние влажности воздуха и скорости ветра на теплоощущения человека.
  • Tes - Эффективная температура на солнце - температура, которую ощущает человек, с поправкой на солнечный нагрев. Характеристика знойности погоды. Зависит от высоты солнца над горизонтом, облачности и скорости ветра. Ночью, в пасмурную погоду, а также при ветре 12 м/с и более поправка равна нулю.
  • P - Атмосферное давление - приведенное к уровню моря атмосферное давление.
  • Po - Атмосферное давление - измеренное на уровне метеостанции атмосферное давление.
  • Tmin - Минимальная температура - минимум температуры воздуха на высоте 2 м над землей.
  • Tmax - Максимальная температура - максимум температуры воздуха на высоте 2 м над землей.
  • R - Количество осадков - Количество выпавших осадков за период времени, мм. При наведении курсора мыши на число - период времени, за который выпало указанное количество осадков.
  • R24 - Количество осадков - Количество выпавших осадков за 24 часа, мм.
  • S - Снежный покров - Высота снежного покрова, см. При наведении курсора мыши на число - состояние снежного покрова и степень покрытия местности в баллах.